Location: Newark
(15.4608°S, 41.1635°W)
Time: 08:15:34
(UTC+00:00)

Vanguard 3 - Pass Details

Date: 08 August 2021
Orbit: 510 x 3260 km, 33.3° (Epoch: 22 September)

Event Time Altitude Azimuth Distance (km) Brightness Sun altitude
Rises 23:50:44 0° 341° (NNW) 7,034 12.2 -46.9°
Reaches altitude 10° 23:59:02 10° 1° (N) 6,179 11.6 -48.9°
Enters shadow 00:06:56 15° 25° (NNE) 5,655 11.2 -50.7°
Maximum altitude 00:08:57 16° 31° (NNE) 5,586 - -51.2°
Drops below altitude 10° 00:18:04 10° 62° (ENE) 5,698 - -53.4°
Sets 00:24:51 0° 82° (E) 6,254 - -55.0°
